Tracking 26911 objects as of 8-Feb-2023
HD Live streaming from Space Station
objects crossing your sky now

COSMOS 648

Track COSMOS 648 now!
10-day predictions
COSMOS 648 is classified as:


NORAD ID: 7272
Int'l Code: 1974-024H
Perigee: 1,444.3 km
Apogee: 1,496.1 km
Inclination: 74.0 °
Period: 115.2 minutes
Semi major axis: 7841 km
RCS: 0.7136 m2 (medium)
Launch date: April 23, 1974
Source: Commonwealth of Independent States (former USSR) (CIS)
Launch site: PLESETSK MISSILE AND SPACE COMPLEX (PKMTR)
Your satellite tracking list
Your tracking list is empty




NASA's NSSDC Master Catalog

Two Line Element Set (TLE):
1 07272U 74024H   23038.72673800  .00000013  00000-0  19071-3 0  9999
2 07272  74.0180 122.6516 0033017   6.7484 111.6822 12.50346188227220
Source of the keplerian elements: AFSPC